TimeEDT,TemperatureF,Dew PointF,Humidity,Sea Level PressureIn,VisibilityMPH,Wind Direction,Wind SpeedMPH,Gust SpeedMPH,PrecipitationIn,Events,Conditions,WindDirDegrees,DateUTC
12:58 AM,52.2,47.7,85,30.16,10.0,SSE,5.8,-,N/A,,Clear,160,2013-05-07 04:58:00
1:58 AM,50.7,47.3,88,30.16,10.0,SSE,4.6,-,N/A,,Clear,160,2013-05-07 05:58:00
2:58 AM,46.9,46.0,97,30.15,10.0,Calm,Calm,-,N/A,,Clear,0,2013-05-07 06:58:00
3:13 AM,44.6,44.6,100,30.15,2.0,NNE,2.3,-,N/A,,Clear,30,2013-05-07 07:13:00
3:14 AM,44.6,44.6,100,30.15,1.5,NNE,2.3,-,N/A,,Clear,30,2013-05-07 07:14:00
3:15 AM,44.6,44.6,100,30.15,1.2,NNE,2.3,-,N/A,,Clear,30,2013-05-07 07:15:00
3:16 AM,44.6,44.6,100,30.15,1.0,NE,2.3,-,N/A,,Clear,40,2013-05-07 07:16:00
3:17 AM,44.6,44.6,100,30.15,1.0,NE,1.2,-,N/A,,Clear,40,2013-05-07 07:17:00
3:18 AM,44.6,44.6,100,30.15,0.8,NE,1.2,-,N/A,,Clear,40,2013-05-07 07:18:00
3:19 AM,44.6,44.6,100,30.15,0.8,NE,1.2,-,N/A,,Clear,50,2013-05-07 07:19:00
3:21 AM,44.6,44.6,100,30.15,0.5,NE,1.2,-,N/A,Fog,Fog,50,2013-05-07 07:21:00
3:23 AM,44.6,44.6,100,30.15,0.8,NE,2.3,-,N/A,,Clear,40,2013-05-07 07:23:00
3:25 AM,44.6,44.6,100,30.15,0.8,NE,2.3,-,N/A,,Clear,40,2013-05-07 07:25:00
3:27 AM,44.6,42.8,93,30.15,1.0,NNE,3.5,-,N/A,,Clear,30,2013-05-07 07:27:00
3:28 AM,44.6,42.8,93,30.15,1.0,NNE,3.5,-,N/A,,Clear,30,2013-05-07 07:28:00
3:29 AM,44.6,42.8,93,30.15,1.0,NNE,3.5,-,N/A,,Clear,30,2013-05-07 07:29:00
3:32 AM,42.8,42.8,100,30.15,0.8,NNE,3.5,-,N/A,,Clear,30,2013-05-07 07:32:00
3:33 AM,42.8,42.8,100,30.15,0.8,NNE,3.5,-,N/A,,Clear,30,2013-05-07 07:33:00
3:34 AM,42.8,42.8,100,30.15,0.8,NNE,3.5,-,N/A,,Clear,30,2013-05-07 07:34:00
3:35 AM,44.6,42.8,93,30.15,0.5,NNE,3.5,-,N/A,Fog,Fog,30,2013-05-07 07:35:00
3:38 AM,44.6,42.8,93,30.15,0.5,NNE,2.3,-,N/A,Fog,Fog,30,2013-05-07 07:38:00
3:39 AM,44.6,42.8,93,30.15,0.5,NNE,2.3,-,N/A,Fog,Fog,30,2013-05-07 07:39:00
3:43 AM,44.6,44.6,100,30.15,0.5,NNE,3.5,-,N/A,Fog,Fog,20,2013-05-07 07:43:00
3:51 AM,44.6,42.8,93,30.15,0.5,NNE,3.5,-,N/A,Fog,Fog,30,2013-05-07 07:51:00
3:58 AM,44.2,43.9,99,30.15,0.5,NNE,2.3,-,N/A,Fog,Fog,30,2013-05-07 07:58:00
4:04 AM,44.6,44.6,100,30.16,0.8,NE,2.3,-,N/A,,Clear,50,2013-05-07 08:04:00
4:05 AM,44.6,44.6,100,30.16,0.8,NE,2.3,-,N/A,,Clear,40,2013-05-07 08:05:00
4:07 AM,44.6,44.6,100,30.16,1.0,NNE,2.3,-,N/A,,Clear,30,2013-05-07 08:07:00
4:11 AM,42.8,42.8,100,30.16,0.8,NE,2.3,-,N/A,,Clear,40,2013-05-07 08:11:00
4:12 AM,42.8,42.8,100,30.16,0.8,NE,2.3,-,N/A,,Clear,40,2013-05-07 08:12:00
4:13 AM,42.8,42.8,100,30.16,0.8,NE,2.3,-,N/A,,Clear,50,2013-05-07 08:13:00
4:15 AM,42.8,41.0,93,30.16,0.5,NE,2.3,-,N/A,Fog,Fog,50,2013-05-07 08:15:00
4:21 AM,42.8,42.8,100,30.16,0.8,ENE,1.2,-,N/A,,Clear,70,2013-05-07 08:21:00
4:26 AM,42.8,42.8,100,30.16,1.0,Calm,Calm,-,N/A,,Clear,0,2013-05-07 08:26:00
4:27 AM,42.8,42.8,100,30.16,1.0,Calm,Calm,-,N/A,,Clear,0,2013-05-07 08:27:00
4:28 AM,42.8,42.8,100,30.16,1.0,Calm,Calm,-,N/A,,Clear,0,2013-05-07 08:28:00
4:29 AM,42.8,42.8,100,30.16,1.2,Calm,Calm,-,N/A,,Clear,0,2013-05-07 08:29:00
4:32 AM,42.8,42.8,100,30.16,1.0,Calm,Calm,-,N/A,,Clear,0,2013-05-07 08:32:00
4:33 AM,42.8,42.8,100,30.16,1.0,Calm,Calm,-,N/A,,Clear,0,2013-05-07 08:33:00
4:36 AM,41.0,41.0,100,30.16,0.8,Calm,Calm,-,N/A,,Clear,0,2013-05-07 08:36:00
4:49 AM,41.0,41.0,100,30.16,1.0,Calm,Calm,-,N/A,,Clear,0,2013-05-07 08:49:00
4:50 AM,41.0,41.0,100,30.16,1.0,Calm,Calm,-,N/A,,Clear,0,2013-05-07 08:50:00
4:51 AM,41.0,41.0,100,30.16,1.0,Calm,Calm,-,N/A,,Clear,0,2013-05-07 08:51:00
4:53 AM,41.0,41.0,100,30.16,1.2,NE,1.2,-,N/A,,Clear,50,2013-05-07 08:53:00
4:54 AM,41.0,41.0,100,30.16,1.2,NE,2.3,-,N/A,,Clear,40,2013-05-07 08:54:00
4:55 AM,41.0,41.0,100,30.16,1.5,NE,2.3,-,N/A,,Clear,40,2013-05-07 08:55:00
4:56 AM,41.0,41.0,100,30.16,1.2,NNE,2.3,-,N/A,,Clear,30,2013-05-07 08:56:00
4:57 AM,41.0,41.0,100,30.16,1.0,NNE,3.5,-,N/A,,Clear,30,2013-05-07 08:57:00
4:58 AM,41.0,41.0,100,30.16,1.0,NE,2.3,-,N/A,,Clear,40,2013-05-07 08:58:00
4:59 AM,41.0,41.0,100,30.16,0.8,NE,2.3,-,N/A,,Clear,50,2013-05-07 08:59:00
5:00 AM,41.0,41.0,100,30.16,0.8,NE,2.3,-,N/A,,Clear,50,2013-05-07 09:00:00
5:02 AM,41.0,39.2,93,30.16,0.8,NE,3.5,-,N/A,,Clear,40,2013-05-07 09:02:00
5:04 AM,41.0,41.0,100,30.16,0.8,NE,3.5,-,N/A,,Clear,40,2013-05-07 09:04:00
5:10 AM,41.0,39.2,93,30.16,0.5,NNE,3.5,-,N/A,Fog,Fog,30,2013-05-07 09:10:00
5:13 AM,39.2,39.2,100,30.16,0.5,NNE,3.5,-,N/A,Fog,Fog,30,2013-05-07 09:13:00
5:14 AM,39.2,39.2,100,30.16,0.5,NNE,3.5,-,N/A,Fog,Fog,30,2013-05-07 09:14:00
5:15 AM,39.2,39.2,100,30.16,0.2,NNE,3.5,-,N/A,Fog,Fog,30,2013-05-07 09:15:00
5:19 AM,39.2,39.2,100,30.16,0.2,NNE,3.5,-,N/A,Fog,Fog,20,2013-05-07 09:19:00
5:26 AM,39.2,39.2,100,30.16,0.2,NE,3.5,-,N/A,Fog,Fog,40,2013-05-07 09:26:00
5:34 AM,39.2,37.4,93,30.16,0.2,NNE,3.5,-,N/A,Fog,Fog,30,2013-05-07 09:34:00
5:47 AM,41.0,39.2,93,30.16,0.2,NE,3.5,-,N/A,Fog,Fog,40,2013-05-07 09:47:00
5:51 AM,41.0,41.0,100,30.16,0.2,ENE,3.5,-,N/A,Fog,Fog,60,2013-05-07 09:51:00
5:52 AM,41.0,41.0,100,30.16,0.2,ENE,3.5,-,N/A,Fog,Fog,60,2013-05-07 09:52:00
5:54 AM,42.8,41.0,93,30.16,0.5,ENE,2.3,-,N/A,Fog,Fog,60,2013-05-07 09:54:00
5:58 AM,42.8,41.0,93,30.16,0.8,Calm,Calm,-,N/A,,Clear,0,2013-05-07 09:58:00
5:59 AM,42.8,41.0,93,30.16,1.5,Calm,Calm,-,N/A,,Clear,0,2013-05-07 09:59:00
6:00 AM,41.0,41.0,100,30.16,2.5,Calm,Calm,-,N/A,,Clear,0,2013-05-07 10:00:00
6:01 AM,41.0,41.0,100,30.16,4.0,NNE,1.2,-,N/A,,Clear,30,2013-05-07 10:01:00
6:04 AM,41.0,41.0,100,30.16,2.5,Calm,Calm,-,N/A,,Clear,0,2013-05-07 10:04:00
6:05 AM,41.0,41.0,100,30.16,2.0,Calm,Calm,-,N/A,,Clear,0,2013-05-07 10:05:00
6:06 AM,41.0,41.0,100,30.16,1.8,Calm,Calm,-,N/A,,Clear,0,2013-05-07 10:06:00
6:07 AM,41.0,41.0,100,30.16,2.0,Calm,Calm,-,N/A,,Clear,0,2013-05-07 10:07:00
6:09 AM,41.0,41.0,100,30.16,1.8,Calm,Calm,-,N/A,,Clear,0,2013-05-07 10:09:00
6:13 AM,41.0,39.2,93,30.16,2.0,Calm,Calm,-,N/A,,Clear,0,2013-05-07 10:13:00
6:14 AM,41.0,39.2,93,30.16,3.0,Calm,Calm,-,N/A,,Clear,0,2013-05-07 10:14:00
6:58 AM,45.7,45.3,99,30.17,10.0,Calm,Calm,-,N/A,,Clear,0,2013-05-07 10:58:00
7:58 AM,53.6,48.2,82,30.17,10.0,Variable,1.2,-,N/A,,Clear,0,2013-05-07 11:58:00
8:58 AM,59.9,49.3,68,30.17,10.0,Variable,2.3,-,N/A,,Clear,0,2013-05-07 12:58:00
9:58 AM,64.6,49.1,57,30.16,10.0,Variable,2.3,-,N/A,,Clear,0,2013-05-07 13:58:00
10:55 AM,68.9,49.6,50,30.17,10.0,South,5.8,-,N/A,,Clear,190,2013-05-07 14:55:00
10:59 AM,69.8,50.0,49,30.16,10.0,Variable,2.3,-,N/A,,Clear,0,2013-05-07 14:59:00
11:55 AM,72.1,47.8,42,30.15,10.0,SSW,5.8,-,N/A,,Clear,200,2013-05-07 15:55:00
11:58 AM,72.1,47.8,42,30.15,10.0,SSW,5.8,-,N/A,,Clear,200,2013-05-07 15:58:00
12:58 PM,75.0,48.6,39,30.13,10.0,Variable,6.9,-,N/A,,Clear,0,2013-05-07 16:58:00
1:58 PM,77.2,48.6,36,30.11,10.0,WSW,8.1,-,N/A,,Clear,240,2013-05-07 17:58:00
2:58 PM,78.6,46.9,33,30.08,10.0,WSW,5.8,-,N/A,,Clear,240,2013-05-07 18:58:00
3:58 PM,79.0,48.4,34,30.07,10.0,WSW,8.1,-,N/A,,Partly Cloudy,240,2013-05-07 19:58:00
4:58 PM,79.7,50.5,36,30.06,10.0,South,6.9,-,N/A,,Clear,170,2013-05-07 20:58:00
5:58 PM,76.1,55.4,49,30.07,6.0,South,15.0,-,N/A,,Haze,170,2013-05-07 21:58:00
6:58 PM,72.5,55.6,55,30.08,7.0,South,12.7,-,N/A,,Clear,190,2013-05-07 22:58:00
7:58 PM,69.3,55.0,60,30.11,4.0,South,11.5,-,N/A,,Haze,180,2013-05-07 23:58:00
8:58 PM,66.6,54.5,65,30.13,7.0,South,10.4,-,N/A,,Clear,180,2013-05-08 00:58:00
9:58 PM,63.1,55.2,75,30.15,6.0,South,6.9,-,N/A,,Haze,180,2013-05-08 01:58:00
10:58 PM,61.3,55.4,81,30.15,10.0,SSE,4.6,-,N/A,,Clear,160,2013-05-08 02:58:00
11:58 PM,59.7,55.4,86,30.16,10.0,SE,1.2,-,N/A,,Clear,140,2013-05-08 03:58:00